Voltar ao catálogo

NIMBUS 2 DEB

AtivoLEO
NORAD 39295·DEBRIS·🇺🇸 United States

Lançado May 15, 1966 de Vandenberg Space Force Base

Loading…

Próximas Passagens (próximas 24 horas)

TLE

AtualizadoSource: Space-Track

Época: Sep 13, 2026, 06:50 UTC

1 39295U 66040BD  26256.28535964  .00001502  00000-0  24212-2 0  9998
2 39295 100.4227 196.7154 0066706 330.2241  29.5102 13.49561112632192

Acompanhe NIMBUS 2 DEB em tempo real com AllMySat

Download on the App Store